sat.trackr.live / text

‹ back to catalog

STARLINK-3584

NORAD 51885 · 2022-022AK

PAYLOAD ACTIVE UNKNOWN

§ Identity

Operator
Country
US
Launch date
2022-03-03
Launch site
AFETR
Launch vehicle
Mass (kg)
RCS (m²)

Purposes: comms

External: N2YO · Heavens-Above · Gunter

§ Orbital elements

Epoch: 2026-09-20T04:22:25.770144Z

Period
93.90 min
Inclination
53.1590°
Eccentricity
0.0001107
Mean motion
15.33545041 rev/d
Perigee alt
464.5 km
Apogee alt
466.0 km
Semi-major
6,843.4 km
B*
5.0808e-5
RAAN
191.3798°
Arg perigee
95.5051°
Mean anomaly
264.6078°
Rev number
25,280

§ Raw data

STARLINK-35841 51885U 22022AK  26263.18224271  .00001298  00000+0  50808-4 0  99952 51885  53.1590 191.3798 0001107  95.5051 264.6078 15.33545041252805

JSON: /api/v1/satellites/51885 · /tle

For live sub-satellite position, see the globe view (requires WebGL).

§ Visibility from observer

Set your observer location to see the next 7 days of passes ≥ 10°. The values pass through the URL so the page stays shareable.

No JS? Fill the form by hand. The geolocation button needs JavaScript.